Weather History for Mandan, ND

Change the Weather History Date:

Tuesday, October 9, 2012

  Actual Average (KBIS) Record (KBIS)
Temperature  
Mean Temperature 38 °F 48 °F  
Max Temperature 44 °F 61 °F 87 °F (1955)
Min Temperature 32 °F 35 °F 13 °F (1897)
Degree Days  
Heating Degree Days 27 17  
Month to date heating degree days 138  
Since 1 July heating degree days 424  
Cooling Degree Days 0 0  
Month to date cooling degree days 0  
Year to date cooling degree days 519  
Moisture  
Dew Point 30 °F    
Average Humidity 79    
Maximum Humidity 100    
Minimum Humidity 53    
Precipitation  
Precipitation 0.02 in 0.04 in 1.29 in (1982)
Month to date precipitation 0.39  
Year to date precipitation 15.79  
Snow  
Snow 0.00 in 0.00 in 1.00 in (1919)
Month to date snowfall 0.2  
Since 1 July snowfall 0.4  
Since 1 September snowfall 0.4  
Snow Depth -    
Sea Level Pressure  
Sea Level Pressure 29.97 in    
Wind  
Wind Speed 16 mph (WNW)    
Max Wind Speed 28 mph    
Max Gust Speed 39 mph    
Visibility 10 miles    
Events Rain , Snow    
T = Trace of Precipitation, MM = Missing Value Source: NWS Daily Summary

Daily Weather History Graph

Daily Weather History Graph

Search for Another Location

Airport:

Trip Planner

Search our weather history database for the weather conditions in past years. The results will help you decide how hot, cold, wet, or windy it might be!

Date:

Astronomy

Oct. 09, 2012 Rise Set
Actual Time 7:53 AM CDT 7:06 PM CDT
Civil Twilight 7:23 AM CDT 7:37 PM CDT
Nautical Twilight 6:48 AM CDT 8:12 PM CDT
Astronomical Twilight 6:13 AM CDT 8:47 PM CDT
Moon 1:10 AM CDT (10/9) 3:54 PM CDT (10/9)
Length of Visible Light 12h 13m
Length of Day
11h 12m
Last Quarter, 36% of the Moon is Illuminated
Oct 9
Last Quarter
Oct 15
New
Oct 21
First Quarter
Oct 29
Full
Nov 6
Last Quarter

Hourly Weather History & Observations

Time (CDT) Temp. Windchill Dew Point Humidity Pressure Visibility Wind Dir Wind Speed Gust Speed Precip Events Conditions
12:15 AM 41.0 °F 33.9 °F 28.4 °F 61% 29.81 in 10.0 mi NW 12.7 mph 20.7 mph N/A   Overcast
12:35 AM 41.0 °F 33.1 °F 28.4 °F 61% 29.81 in 10.0 mi WNW 15.0 mph 18.4 mph N/A   Overcast
12:55 AM 41.0 °F 32.5 °F 28.4 °F 61% 29.81 in 10.0 mi NW 17.3 mph 21.9 mph N/A   Overcast
1:15 AM 39.2 °F 29.0 °F 24.8 °F 56% 29.82 in 10.0 mi NW 21.9 mph 31.1 mph N/A   Overcast
1:35 AM 37.4 °F 27.2 °F 24.8 °F 60% 29.82 in 10.0 mi WNW 19.6 mph 27.6 mph N/A   Mostly Cloudy
1:55 AM 37.4 °F 27.2 °F 24.8 °F 60% 29.82 in 10.0 mi WNW 19.6 mph 26.5 mph N/A   Partly Cloudy
2:15 AM 35.6 °F 25.5 °F 24.8 °F 65% 29.82 in 10.0 mi West 17.3 mph - N/A   Clear
2:35 AM 35.6 °F 25.5 °F 24.8 °F 65% 29.82 in 10.0 mi West 17.3 mph 24.2 mph N/A   Clear
3:15 AM 35.6 °F 24.5 °F 24.8 °F 65% 29.83 in 10.0 mi West 20.7 mph 28.8 mph N/A   Clear
3:35 AM 35.6 °F 24.5 °F 24.8 °F 65% 29.82 in 10.0 mi West 20.7 mph 27.6 mph N/A   Clear
3:55 AM 35.6 °F 24.8 °F 24.8 °F 65% 29.82 in 10.0 mi West 19.6 mph 27.6 mph N/A   Clear
4:15 AM 35.6 °F 24.2 °F 24.8 °F 65% 29.83 in 10.0 mi WNW 21.9 mph 28.8 mph N/A   Scattered Clouds
4:35 AM 33.8 °F 22.2 °F 26.6 °F 75% 29.83 in 10.0 mi WNW 20.7 mph 27.6 mph N/A   Mostly Cloudy
4:55 AM 35.6 °F 23.7 °F 26.6 °F 70% 29.84 in 10.0 mi WNW 24.2 mph 31.1 mph N/A   Mostly Cloudy
5:15 AM 35.6 °F 23.0 °F 26.6 °F 70% 29.84 in 10.0 mi WNW 27.6 mph 34.5 mph N/A   Mostly Cloudy
5:35 AM 35.6 °F 24.2 °F 26.6 °F 70% 29.84 in 10.0 mi WNW 21.9 mph 34.5 mph N/A   Overcast
6:15 AM 35.6 °F 23.7 °F 28.4 °F 75% 29.86 in 10.0 mi NW 24.2 mph 34.5 mph N/A   Overcast
6:35 AM 37.4 °F 26.1 °F 28.4 °F 70% 29.87 in 10.0 mi NW 24.2 mph 32.2 mph N/A   Overcast
6:55 AM 35.6 °F 23.4 °F 28.4 °F 75% 29.88 in 10.0 mi NW 25.3 mph 39.1 mph N/A Rain Light Rain
7:15 AM 35.6 °F 24.8 °F 32.0 °F 87% 29.90 in 9.0 mi NW 19.6 mph 31.1 mph N/A Snow Light Snow
7:35 AM 35.6 °F 24.8 °F 32.0 °F 87% 29.91 in 10.0 mi NW 19.6 mph 28.8 mph N/A Rain Light Rain
7:55 AM 35.6 °F 23.7 °F 32.0 °F 87% 29.92 in 10.0 mi NNW 24.2 mph 29.9 mph N/A Rain Light Rain
8:15 AM 33.8 °F 22.2 °F 32.0 °F 93% 29.93 in 8.0 mi NW 20.7 mph 27.6 mph N/A Rain Light Rain
8:35 AM 33.8 °F 22.2 °F 32.0 °F 93% 29.94 in 10.0 mi NW 20.7 mph 27.6 mph N/A Rain Light Rain
8:55 AM 33.8 °F 22.5 °F 32.0 °F 93% 29.95 in 10.0 mi NNW 19.6 mph 24.2 mph N/A   Overcast
9:15 AM 33.8 °F 23.9 °F 33.8 °F 100% 29.96 in 9.0 mi NNW 15.0 mph 21.9 mph N/A   Mostly Cloudy
9:35 AM 35.6 °F 26.6 °F 33.8 °F 93% 29.98 in 10.0 mi NNW 13.8 mph 18.4 mph N/A   Mostly Cloudy
9:55 AM 33.8 °F 23.9 °F 33.8 °F 100% 29.99 in 6.0 mi NNW 15.0 mph - N/A   Mostly Cloudy
10:15 AM 35.6 °F 25.9 °F 35.6 °F 100% 30.00 in 5.0 mi NNW 16.1 mph 19.6 mph N/A Rain Light Rain
10:35 AM 35.6 °F 25.9 °F 35.6 °F 100% 30.00 in 10.0 mi NNW 16.1 mph 19.6 mph N/A   Mostly Cloudy
10:55 AM 35.6 °F 26.6 °F 32.0 °F 87% 30.01 in 10.0 mi NNW 13.8 mph 20.7 mph N/A   Overcast
11:15 AM 37.4 °F 28.9 °F 32.0 °F 81% 30.02 in 10.0 mi NNW 13.8 mph - N/A   Overcast
11:35 AM 37.4 °F 28.5 °F 28.4 °F 70% 30.02 in 10.0 mi NNW 15.0 mph 23.0 mph N/A   Overcast
11:55 AM 39.2 °F 30.5 °F 28.4 °F 65% 30.02 in 10.0 mi NNW 16.1 mph - N/A   Overcast
12:15 PM 39.2 °F 30.5 °F 28.4 °F 65% 30.02 in 10.0 mi NNW 16.1 mph 19.6 mph N/A   Overcast
12:35 PM 39.2 °F 32.5 °F 28.4 °F 65% 30.03 in 10.0 mi NW 10.4 mph - N/A   Overcast
12:55 PM 39.2 °F 31.6 °F 28.4 °F 65% 30.03 in 10.0 mi NW 12.7 mph - N/A   Overcast
1:15 PM 37.4 °F 28.2 °F 32.0 °F 81% 30.03 in 10.0 mi West 16.1 mph 21.9 mph N/A   Overcast
1:35 PM 37.4 °F 29.3 °F 35.6 °F 93% 30.03 in 9.0 mi West 12.7 mph - N/A Rain Light Rain
1:55 PM 35.6 °F 26.2 °F 35.6 °F 100% 30.03 in 5.0 mi WNW 15.0 mph - 0.02 in Snow Light Snow
2:15 PM 37.4 °F 27.8 °F 35.6 °F 93% 30.02 in 9.0 mi WNW 17.3 mph - N/A   Mostly Cloudy
2:35 PM 35.6 °F 27.5 °F 35.6 °F 100% 30.02 in 5.0 mi WNW 11.5 mph 16.1 mph N/A Rain Light Rain
2:55 PM 37.4 °F 29.8 °F 37.4 °F 100% 30.02 in 10.0 mi West 11.5 mph - N/A   Mostly Cloudy
3:15 PM 41.0 °F 33.5 °F 35.6 °F 81% 30.02 in 10.0 mi WNW 13.8 mph 20.7 mph N/A   Scattered Clouds
3:35 PM 41.0 °F 31.9 °F 32.0 °F 70% 30.02 in 10.0 mi WNW 19.6 mph 26.5 mph N/A   Partly Cloudy
3:55 PM 41.0 °F 32.2 °F 30.2 °F 65% 30.02 in 10.0 mi WNW 18.4 mph 24.2 mph N/A   Clear
4:15 PM 42.8 °F 34.5 °F 28.4 °F 57% 30.02 in 10.0 mi WNW 18.4 mph 21.9 mph N/A   Mostly Cloudy
4:35 PM 44.6 °F 37.4 °F 28.4 °F 53% 30.02 in 10.0 mi WNW 16.1 mph - N/A   Overcast
4:55 PM 42.8 °F 36.2 °F 28.4 °F 57% 30.03 in 10.0 mi WNW 12.7 mph 20.7 mph N/A   Overcast
5:15 PM 39.2 °F 29.8 °F 32.0 °F 75% 30.04 in 10.0 mi NNW 18.4 mph 25.3 mph N/A   Overcast
5:35 PM 39.2 °F 31.6 °F 28.4 °F 65% 30.04 in 10.0 mi NW 12.7 mph 25.3 mph N/A   Overcast
5:55 PM 39.2 °F 30.8 °F 28.4 °F 65% 30.04 in 10.0 mi NW 15.0 mph - N/A   Overcast
6:15 PM 39.2 °F 33.0 °F 28.4 °F 65% 30.04 in 10.0 mi NW 9.2 mph - N/A   Mostly Cloudy
6:35 PM 39.2 °F 33.6 °F 28.4 °F 65% 30.05 in 10.0 mi NW 8.1 mph - N/A   Mostly Cloudy
6:55 PM 37.4 °F 31.4 °F 32.0 °F 81% 30.05 in 10.0 mi North 8.1 mph - N/A   Overcast
7:15 PM 37.4 °F 32.8 °F 32.0 °F 81% 30.05 in 10.0 mi NNW 5.8 mph - N/A   Overcast
7:35 PM 37.4 °F 34.9 °F 32.0 °F 81% 30.06 in 10.0 mi NW 3.5 mph - N/A   Overcast
7:55 PM 35.6 °F 30.7 °F 32.0 °F 87% 30.06 in 10.0 mi NW 5.8 mph - N/A   Overcast
8:15 PM 35.6 °F 30.7 °F 32.0 °F 87% 30.06 in 10.0 mi WNW 5.8 mph - N/A   Overcast
8:35 PM 35.6 °F 31.7 °F 32.0 °F 87% 30.06 in 10.0 mi WNW 4.6 mph - N/A   Overcast
8:55 PM 35.6 °F 31.7 °F 32.0 °F 87% 30.06 in 10.0 mi West 4.6 mph - N/A   Overcast
9:15 PM 35.6 °F 32.8 °F 32.0 °F 87% 30.06 in 10.0 mi West 3.5 mph - N/A   Overcast
9:35 PM 35.6 °F 32.8 °F 32.0 °F 87% 30.06 in 10.0 mi West 3.5 mph - N/A   Overcast
9:55 PM 35.6 °F 31.7 °F 32.0 °F 87% 30.06 in 10.0 mi WSW 4.6 mph - N/A   Overcast
10:15 PM 33.8 °F - 32.0 °F 93% 30.07 in 10.0 mi Calm Calm - N/A   Overcast
10:35 PM 32.0 °F - 32.0 °F 100% 30.07 in 10.0 mi Calm Calm - N/A   Overcast
10:55 PM 32.0 °F 28.7 °F 32.0 °F 100% 30.07 in 10.0 mi WSW 3.5 mph - N/A   Scattered Clouds
11:15 PM 32.0 °F 26.4 °F 32.0 °F 100% 30.06 in 10.0 mi SW 5.8 mph - N/A   Mostly Cloudy
11:35 PM 32.0 °F 26.4 °F 30.2 °F 93% 30.06 in 10.0 mi WSW 5.8 mph - N/A   Overcast
11:55 PM 32.0 °F 25.6 °F 28.4 °F 87% 30.06 in 10.0 mi SW 6.9 mph - N/A   Overcast